#timestamp,LO_Frequency,Hit,StdDev 
1596596415.1,286046999.0,N
1596596416.0,286046999.0,N
1596596435.8,286046996.5,N
1596596455.6,286046998.9,N
1596596475.5,286047001.0,N
1596596495.3,286047000.0,N
1596596515.2,286047000.4,N
1596596535.9,286046998.5,N
1596596555.7,286047000.7,N
1596596575.6,286047001.2,N
1596596595.4,286046998.2,N
1596596615.2,286046999.0,N
1596596635.1,286046996.6,N
1596596636.0,286046996.6,N
1596596655.8,286046999.0,N
1596596675.7,286047000.8,N
1596596695.5,286046999.8,N
1596596715.3,286046999.8,N
1596596735.2,286046999.8,N
1596596755.0,286046998.4,N
1596596755.9,286046998.4,N
1596596775.8,286046999.1,N
1596596795.6,286046999.4,N
1596596815.4,286046997.6,N
1596596835.3,286046998.8,N
1596596855.1,286047000.3,N
1596596875.8,286046998.1,N
1596596895.7,286046998.6,N
1596596915.5,286047000.6,N
1596596935.4,286046998.6,N
1596596955.2,286046998.8,N
1596596975.0,286046998.4,N
1596596975.9,286046998.4,N
1596596995.8,286047000.4,N
1596597015.6,286047000.8,N
1596597035.5,286047001.1,N
1596597055.3,286046998.2,N
1596597075.1,286046998.1,N
1596597095.9,286046999.1,N
1596597115.7,286046999.0,N
1596597135.5,286046996.6,Y
1596597155.4,286046999.2,P
1596597175.2,286046998.2,P
1596597195.1,286047001.0,N
1596597196.0,286047001.0,N
1596597215.8,286047000.7,N
1596597235.6,286046998.5,N
1596597255.5,286047002.7,N
1596597275.3,286047000.3,N
1596597295.2,286047000.5,N
1596597315.9,286047001.5,N
1596597335.7,286047003.8,N
1596597355.6,286047001.6,N
1596597375.4,286047002.0,N
1596597395.2,286047002.0,N
1596597415.1,286047003.9,N
1596597416.0,286047003.9,N
1596597435.8,286047001.8,N
1596597455.7,286046999.8,N
1596597475.5,286047000.1,N
1596597495.3,286047001.4,N
1596597515.2,286047001.6,N
1596597535.0,286047004.3,N
1596597535.9,286047004.3,N
1596597555.8,286047003.0,N
1596597575.6,286047003.7,N
1596597595.4,286047004.1,N
1596597615.3,286047002.9,N
1596597635.1,286047004.3,N
1596597655.8,286047002.0,N
1596597675.7,286047001.8,N
1596597695.5,286047002.5,N
1596597715.4,286047000.1,N
1596597735.2,286047000.3,N
1596597755.0,286047002.2,N
1596597755.9,286047002.2,N
1596597775.8,286047001.4,N
1596597795.6,286047003.8,N
1596597815.5,286047003.2,N
1596597835.3,286047003.4,N
1596597855.1,286047004.3,Y
1596597875.9,286047002.7,P
1596597895.7,286047002.3,P
1596597915.5,286047001.9,P
1596597935.4,286047001.3,Y
1596597955.2,286047002.1,P
1596597975.1,286047000.0,N
1596597976.0,286047000.0,N
1596597995.8,286047001.2,N
1596598015.6,286046997.0,Y
1596598035.5,286046997.4,P
1596598055.3,286046997.5,N
1596598075.2,286046998.3,N
1596598095.9,286046996.6,N
1596598115.7,286046996.8,N
1596598135.6,286046995.4,Y
1596598155.4,286046998.7,P
1596598175.3,286046996.5,P
1596598195.1,286046999.4,N
1596598196.0,286046999.4,N
1596598215.8,286046998.4,N
1596598235.7,286046998.8,N
1596598255.5,286046998.5,N
1596598275.3,286047001.0,N
1596598295.2,286046998.3,N
1596598315.0,286047000.6,N
1596598315.9,286047000.6,N
1596598335.8,286047000.4,N
1596598355.2,286047000.6,N
1596598375.0,286046998.2,N
1596598375.9,286046998.2,N
1596598395.8,286047001.1,N
1596598415.6,286047001.2,N
1596598435.4,286046998.2,N
1596598455.3,286046998.9,N
1596598475.1,286046999.1,N
1596598495.9,286046999.0,N
1596598515.7,286047000.7,N
1596598535.5,286046998.2,N
1596598555.4,286046998.8,N
1596598575.2,286047001.2,N
1596598595.0,286046998.1,N
1596598595.9,286046998.1,N
1596598615.8,286047000.6,N
1596598635.6,286047002.7,N
1596598655.5,286047004.4,Y
1596598675.3,286047002.5,P
1596598695.1,286047000.2,N
1596598715.9,286047001.5,N
1596598735.7,286047001.9,N
1596598755.6,286047002.4,N
1596598775.4,286046999.8,N
1596598795.2,286047002.3,N
1596598815.1,286047002.2,N
1596598816.0,286047002.2,N
1596598835.8,286047000.0,N
1596598855.6,286047001.4,N
1596598875.5,286047001.5,N
1596598895.3,286047004.4,Y
1596598915.2,286047004.4,P
1596598935.9,286047002.7,N
1596598955.7,286046999.9,N
1596598975.6,286046999.9,N
1596598995.4,286047002.8,N
1596599015.3,286047003.9,N
1596599035.1,286047001.6,N
1596599036.0,286047001.6,N
1596599055.8,286047002.2,N
1596599075.7,286047000.6,N
1596599095.5,286046998.2,N
1596599115.3,286046998.1,N
1596599135.2,286046998.5,N
1596599155.0,286047001.0,N
1596599155.9,286047001.0,N
1596599175.8,286047001.9,N
1596599195.6,286047004.0,N
1596599215.4,286047002.3,N
1596599235.3,286047000.2,N
1596599255.1,286047000.1,N
1596599275.9,286047001.5,N
1596599295.7,286047004.1,N
1596599315.5,286047001.4,N
1596599335.4,286047001.4,N
1596599355.2,286047004.0,N
1596599375.1,286047002.9,N
1596599376.0,286047002.9,N
1596599395.8,286047004.3,N
1596599415.6,286047001.5,N
1596599435.5,286047000.2,N
1596599455.3,286046999.8,N
1596599475.2,286047002.7,N
1596599495.9,286047001.3,N
1596599515.7,286047004.0,N
1596599535.6,286047001.4,N
1596599555.4,286047003.8,N
1596599575.3,286047000.4,N
1596599595.1,286047002.4,N
1596599596.0,286047002.4,N
1596599615.8,286047002.8,N
1596599635.7,286047000.5,N
1596599655.5,286047000.6,N
1596599675.3,286047000.9,N
1596599695.2,286047002.3,N
1596599715.0,286047002.0,N
1596599715.9,286047002.0,N
1596599735.8,286047002.9,N
1596599755.6,286047005.0,Y
1596599775.4,286047003.2,P
1596599795.3,286047003.1,P
1596599815.1,286047003.4,P
1596599835.9,286047003.8,Y
1596599855.7,286046998.9,P
1596599875.5,286046998.3,N
1596599895.4,286046999.1,N
1596599915.2,286046998.8,N
1596599935.1,286046997.9,N
1596599936.0,286046997.9,N
1596599955.8,286046997.9,N
1596599975.6,286046997.9,N
1596599995.5,286046996.6,N
